User: anonymous   Login
Location: Unspecified
(0.0000°N, 0.0000°E)
Time: 15:40:31
(UTC+00:00)
Language:

ISS - Orbit

View from above orbital plane
View from above orbital plane
View from above satellite
View from above satellite

Ground track
Ground track

The orbit data is extracted from the following two-line orbital elements,

1 25544U 98067A   19265.53946506  .00016717  00000-0  10270-3 0  9020
2 25544  51.6386 238.4556 0007374  72.2335 287.9619 15.50106833 30352
Epoch (UTC): 22 September 2019 12:56:49
Eccentricity: 0.0007374
inclination: 51.6386°
perigee height: 411 km
apogee height: 421 km
right ascension of ascending node: 238.4556°
argument of perigee: 72.2335°
revolutions per day: 15.50106833
mean anomaly at epoch: 287.9619°
orbit number at epoch: 3035

The dashed part of the orbit path shows where the satellite is in the earth's shadow,  

DLR